Location: Newark
(25.0000°N, 73.5000°E)
Time: 08:07:30
(UTC+00:00)

NOAA 15 - Pass Details

Date: 24 February 2020
Orbit: 797 x 813 km, 98.7° (Epoch: 07 April)

Event Time Altitude Azimuth Distance (km) Brightness Sun altitude
Rises 14:55:12 0° 202° (SSW) 3,314 8.1 -25.7°
Reaches altitude 10° 14:58:13 10° 220° (SW) 2,389 7.5 -26.3°
Maximum altitude 15:01:49 19° 263° (W) 1,867 7.3 -27.2°
Drops below altitude 10° 15:05:26 10° 307° (NW) 2,399 7.7 -28.0°
Sets 15:08:30 0° 325° (NW) 3,335 8.3 -28.7°
